Probability
0 0 3 0 0 0 0 0 0 0 0 10 19 23 29 32 35 42 48 42 48 55 68 68 68 71 68 68 68 68 71 74 71 74 74 71 68 65 61 61 52 55 58 52
0 0 3 3 3 0 0 0 0 0 3 6 23 23 35 35 32 39 42 35 42 61 65 71 71 65 61 68 68 71 71 65 65 68 71 71 65 65 61 52 52 52 48 48
0 0 3 0 3 3 3 3 3 3 3 16 26 19 23 29 26 26 35 39 45 55 61 61 65 65 61 65 61 68 68 65 65 65 65 65 61 65 52 48 48 52 52 45
0 0 0 3 3 6 6 6 6 6 6 16 19 29 26 29 29 26 29 35 42 42 48 58 58 61 68 65 61 68 68 65 65 65 68 71 68 65 58 52 55 45 42 45
0 0 0 0 3 3 6 6 6 10 10 16 13 13 29 35 35 32 35 39 42 42 39 45 55 58 65 65 65 61 61 61 61 61 68 65 58 45 48 48 48 48 42 39
0 0 0 0 0 3 6 3 10 13 16 13 13 19 32 39 42 42 45 45 39 35 42 45 48 55 55 58 55 58 58 55 52 48 55 52 45 39 39 42 39 32 35 39
0 0 0 0 3 6 3 0 16 16 23 19 29 35 39 35 39 45 45 39 42 42 42 52 48 48 55 55 55 52 52 42 42 39 45 45 32 32 35 32 32 29 29 23
0 0 0 0 6 6 16 23 23 32 35 32 35 39 39 42 39 48 45 39 35 39 39 42 45 48 52 45 48 39 35 35 29 32 32 29 26 32 32 29 32 32 32 29
0 0 13 10 10 19 19 26 35 39 45 35 32 35 39 45 42 42 35 39 35 35 35 35 39 39 35 45 39 39 39 39 29 29 29 26 26 26 26 26 23 23 23 16
6 3 6 13 19 16 16 29 42 42 45 42 32 42 39 39 39 35 26 29 29 29 29 23 19 23 23 26 35 39 32 32 32 32 29 26 26 26 26 26 23 23 19 16
10 16 13 16 16 23 26 35 39 39 39 39 39 35 35 32 29 32 26 26 26 26 23 23 19 19 19 19 26 26 32 29 29 23 23 23 23 23 19 23 19 19 19 19
10 23 23 23 19 19 29 32 32 32 35 39 35 32 32 26 26 26 23 23 23 23 23 19 16 16 16 16 26 26 26 26 29 23 23 19 19 19 6 10 3 3 3 6
13 16 19 19 19 19 16 23 29 29 29 29 26 26 26 26 23 23 19 16 19 19 19 16 13 13 16 16 19 23 26 26 23 19 19 23 19 19 16 10 0 0 0 0
10 16 16 19 16 23 19 23 26 26 26 23 16 19 13 16 16 16 13 13 13 13 13 13 13 13 13 13 16 16 19 23 16 16 16 19 19 19 16 16 16 13 0 0
10 13 16 13 13 23 26 23 26 23 13 16 16 16 16 19 16 13 13 13 13 13 13 13 13 10 10 10 13 19 19 16 16 13 13 16 16 13 16 16 16 16 13 6
6 6 10 6 10 19 23 19 23 16 16 19 16 16 13 13 13 13 13 13 13 13 13 13 13 13 10 10 10 10 13 6 6 10 13 13 13 13 13 16 16 16 13 13
10 10 6 6 6 10 16 16 10 6 6 13 13 13 13 13 13 13 13 13 13 13 13 13 13 10 10 10 10 6 6 6 6 6 10 10 13 13 13 13 13 10 13 13
10 10 10 6 6 10 13 6 10 10 6 3 13 13 13 13 13 13 13 13 13 13 13 13 13 10 10 10 6 6 6 6 6 6 10 10 10 10 10 10 10 10 10 6
6 10 6 6 6 10 3 3 6 6 6 6 10 13 13 13 13 13 13 13 13 13 13 13 6 10 10 6 6 6 6 6 6 6 10 10 10 10 10 6 6 6 3 3
6 6 6 6 6 3 3 6 6 6 6 6 6 6 10 13 13 13 13 13 13 13 13 6 6 6 6 6 3 6 6 3 3 3 10 6 6 6 6 6 6 3 3 3
6 6 6 6 3 3 3 6 3 3 6 6 6 10 10 13 13 13 13 13 13 16 6 6 6 6 6 6 3 6 6 6 6 3 3 10 13 10 6 6 6 6 3 0
6 10 3 3 3 0 0 3 3 6 6 6 6 10 10 10 10 13 13 16 10 3 6 6 6 6 6 3 6 6 6 6 6 6 3 6 6 6 6 6 6 3 0 0
6 3 10 10 0 0 0 3 3 6 6 6 10 10 13 10 6 10 13 6 6 0 3 3 0 0 0 3 3 3 3 3 3 3 3 6 6 3 3 3 3 0 0 0
3 3 10 10 3 0 0 3 3 10 10 10 13 16 13 13 6 3 3 0 0 0 0 0 0 0 0 0 0 0 0 0 0 0 0 3 3 3 3 3 0 0 0 0
3 3 3 6 3 0 0 3 6 6 6 10 10 6 6 6 3 6 0 3 0 0 0 0 0 0 0 0 0 0 0 0 0 0 3 3 3 3 3 0 0 0 0 0
3 3 3 6 3 3 3 3 6 6 10 10 6 6 3 3 3 3 3 0 0 0 0 0 0 0 0 0 0 0 0 0 0 0 3 3 3 3 0 0 0 0 0 0
3 3 3 6 3 3 6 6 6 10 6 3 3 0 0 0 0 0 0 0 0 0 0 0 0 0 0 0 0 0 0 0 0 3 3 3 3 0 0 0 0 0 0 0
Height
5868 5870 5872 5873 5875 5877 5878 5881 5883 5885 5885 5887 5887 5888 5888 5889 5889 5889 5890 5890 5890 5889 5889 5888 5888 5887 5886 5885 5884 5883 5883 5882 5881 5880 5879 5878 5877 5875 5874 5872 5870 5869 5867 5865
5861 5863 5865 5867 5869 5870 5872 5874 5876 5877 5879 5880 5880 5881 5882 5883 5883 5884 5884 5884 5884 5884 5883 5883 5883 5882 5881 5880 5880 5879 5878 5877 5876 5875 5874 5873 5872 5870 5869 5867 5865 5864 5862 5859
5855 5857 5858 5860 5863 5864 5866 5867 5869 5870 5873 5873 5873 5874 5875 5876 5876 5877 5877 5878 5878 5877 5877 5877 5877 5876 5876 5875 5874 5873 5873 5872 5871 5870 5869 5868 5866 5865 5863 5862 5860 5858 5857 5855
5848 5850 5851 5856 5856 5858 5859 5861 5862 5863 5864 5865 5866 5867 5868 5869 5869 5869 5870 5870 5870 5871 5871 5871 5870 5870 5870 5869 5868 5868 5867 5866 5865 5864 5863 5862 5860 5859 5857 5855 5854 5853 5851 5849
5840 5842 5844 5847 5849 5851 5852 5854 5855 5856 5857 5858 5859 5860 5861 5861 5861 5862 5862 5863 5863 5863 5864 5864 5864 5863 5863 5863 5862 5861 5860 5859 5858 5857 5856 5855 5854 5853 5851 5849 5848 5846 5845 5843
5831 5834 5837 5840 5841 5843 5846 5846 5848 5848 5849 5850 5851 5852 5853 5853 5854 5854 5854 5855 5855 5856 5856 5856 5856 5856 5856 5855 5855 5854 5853 5852 5851 5850 5849 5848 5847 5845 5844 5843 5841 5840 5838 5837
5823 5826 5829 5831 5833 5836 5839 5840 5840 5841 5841 5842 5843 5844 5845 5845 5846 5846 5846 5847 5847 5847 5848 5848 5848 5848 5848 5847 5847 5846 5845 5844 5844 5843 5842 5841 5840 5838 5837 5835 5834 5832 5831 5829
5815 5818 5822 5823 5825 5828 5829 5831 5832 5832 5833 5834 5835 5835 5836 5837 5837 5838 5838 5838 5839 5839 5840 5840 5840 5840 5840 5840 5839 5838 5838 5837 5836 5836 5835 5833 5832 5831 5829 5828 5826 5825 5823 5822
5807 5811 5813 5815 5817 5819 5821 5822 5823 5825 5826 5826 5827 5827 5828 5829 5829 5830 5830 5831 5831 5831 5832 5833 5833 5833 5832 5832 5831 5830 5830 5829 5828 5828 5827 5825 5824 5823 5821 5820 5819 5817 5815 5814
5798 5801 5804 5806 5807 5810 5812 5813 5814 5816 5817 5818 5818 5819 5820 5821 5821 5822 5822 5823 5823 5823 5824 5825 5825 5824 5824 5823 5823 5823 5821 5821 5820 5819 5818 5817 5816 5815 5813 5812 5810 5809 5807 5805
5789 5792 5794 5797 5798 5801 5803 5804 5806 5807 5808 5809 5810 5811 5812 5812 5813 5813 5814 5815 5815 5815 5816 5816 5816 5816 5815 5815 5814 5814 5813 5812 5811 5810 5809 5808 5807 5806 5805 5803 5802 5800 5799 5796
5780 5783 5785 5788 5790 5792 5794 5795 5797 5798 5800 5800 5801 5802 5803 5804 5805 5805 5806 5806 5807 5807 5807 5807 5807 5807 5806 5805 5805 5804 5804 5803 5802 5801 5800 5799 5798 5797 5795 5794 5793 5791 5790 5788
5771 5773 5776 5779 5781 5782 5784 5786 5788 5789 5790 5791 5792 5794 5795 5796 5796 5796 5797 5798 5798 5798 5798 5798 5798 5798 5797 5797 5796 5795 5794 5794 5793 5792 5791 5790 5789 5788 5786 5785 5784 5783 5781 5780
5761 5764 5767 5769 5771 5773 5775 5776 5778 5779 5781 5782 5783 5785 5786 5787 5787 5788 5788 5789 5789 5789 5789 5789 5789 5789 5788 5787 5787 5786 5785 5785 5784 5783 5782 5781 5780 5779 5778 5777 5776 5774 5773 5771
5752 5755 5757 5759 5762 5764 5766 5767 5769 5770 5772 5773 5774 5775 5776 5777 5778 5778 5779 5779 5779 5780 5779 5779 5779 5779 5779 5778 5778 5777 5777 5776 5776 5775 5774 5773 5772 5771 5770 5769 5767 5766 5764 5763
5743 5745 5748 5750 5752 5754 5756 5758 5760 5762 5763 5764 5765 5766 5767 5768 5768 5769 5770 5770 5770 5770 5770 5770 5770 5770 5770 5769 5769 5769 5768 5768 5767 5766 5766 5765 5764 5763 5762 5761 5759 5758 5756 5754
5734 5737 5739 5741 5743 5746 5748 5749 5751 5753 5754 5756 5757 5758 5758 5759 5759 5760 5760 5760 5760 5760 5760 5761 5761 5761 5761 5761 5761 5760 5760 5759 5759 5758 5758 5757 5756 5755 5754 5753 5752 5750 5748 5746
5725 5728 5730 5733 5735 5737 5739 5741 5743 5744 5746 5747 5748 5749 5750 5750 5751 5751 5751 5751 5751 5751 5751 5752 5752 5752 5752 5753 5752 5752 5751 5751 5750 5750 5750 5749 5748 5747 5746 5745 5743 5742 5740 5738
5718 5720 5723 5725 5727 5729 5731 5733 5735 5736 5737 5739 5740 5741 5742 5742 5742 5742 5742 5742 5742 5742 5743 5743 5743 5744 5744 5744 5744 5744 5743 5742 5742 5742 5741 5740 5740 5739 5738 5737 5735 5733 5731 5729
5711 5713 5716 5718 5720 5722 5724 5725 5727 5728 5730 5731 5732 5733 5733 5734 5734 5734 5734 5734 5734 5734 5735 5735 5735 5735 5736 5736 5736 5735 5735 5734 5733 5733 5733 5732 5731 5731 5730 5728 5727 5725 5723 5721
5704 5706 5709 5711 5713 5715 5717 5718 5720 5721 5722 5723 5724 5724 5725 5725 5726 5726 5726 5726 5727 5726 5727 5727 5727 5728 5728 5727 5727 5727 5726 5726 5725 5725 5724 5724 5723 5722 5721 5720 5718 5717 5715 5713
5696 5699 5702 5704 5706 5708 5710 5711 5713 5714 5715 5715 5716 5716 5717 5717 5718 5718 5718 5719 5719 5719 5719 5719 5720 5720 5720 5720 5719 5719 5718 5718 5717 5717 5717 5716 5715 5714 5713 5711 5710 5708 5706 5704
5689 5692 5695 5697 5700 5701 5703 5705 5706 5707 5707 5708 5709 5709 5709 5710 5710 5710 5710 5711 5711 5711 5711 5711 5712 5712 5712 5712 5711 5711 5710 5710 5710 5710 5709 5708 5707 5706 5704 5703 5701 5700 5697 5695
5682 5685 5688 5691 5693 5695 5697 5698 5699 5700 5700 5701 5701 5701 5701 5702 5702 5703 5703 5703 5703 5703 5703 5704 5704 5704 5704 5704 5704 5703 5703 5703 5702 5701 5700 5699 5698 5697 5695 5694 5692 5691 5688 5686
5677 5680 5682 5685 5687 5689 5691 5692 5693 5694 5694 5694 5694 5694 5694 5694 5695 5695 5696 5695 5695 5696 5696 5696 5696 5696 5696 5696 5696 5696 5695 5695 5694 5693 5692 5691 5690 5688 5687 5685 5683 5681 5679 5676
5672 5675 5677 5680 5682 5684 5685 5687 5688 5688 5688 5689 5689 5688 5688 5688 5688 5689 5689 5689 5689 5689 5689 5690 5690 5690 5690 5689 5689 5688 5688 5687 5687 5686 5685 5683 5682 5680 5678 5676 5674 5672 5669 5666
5668 5671 5674 5676 5678 5679 5681 5682 5682 5683 5683 5683 5683 5683 5683 5683 5683 5683 5683 5683 5683 5683 5684 5684 5683 5683 5683 5683 5682 5682 5681 5681 5680 5678 5677 5675 5674 5672 5670 5667 5665 5662 5659 5656
Wind_Speed
26 25 25 24 23 23 23 22 22 21 21 20 21 20 20 19 19 19 18 19 19 18 17 17 16 16 16 17 17 17 17 18 18 18 18 19 19 20 20 21 21 21 21 22
28 27 26 26 25 25 25 24 23 23 22 22 23 23 22 22 22 21 21 21 20 20 19 19 18 18 18 19 18 18 18 18 19 19 19 20 21 21 21 22 22 22 22 22
28 28 28 29 26 26 25 24 24 24 24 24 24 24 24 23 24 23 23 22 23 22 21 21 21 20 20 21 20 20 20 20 21 21 21 21 22 23 23 23 24 23 23 23
29 30 30 28 26 26 25 25 25 25 25 25 25 25 24 24 24 25 25 24 24 24 23 23 24 23 23 22 22 22 23 24 24 24 25 24 24 24 24 24 24 24 23 23
31 30 30 29 28 26 25 25 25 25 25 25 25 25 24 24 25 25 26 26 26 26 25 25 25 24 24 24 24 24 25 26 27 27 27 26 25 25 25 25 25 25 25 25
32 31 29 29 29 26 26 27 26 26 26 26 25 26 26 25 26 27 27 27 28 28 27 26 27 26 26 26 26 26 26 27 27 26 27 26 26 26 27 26 27 27 27 27
33 32 30 30 30 27 27 26 26 26 26 27 27 26 26 26 26 27 27 28 28 28 27 27 27 28 28 27 27 27 26 26 26 26 26 27 27 27 27 28 28 28 28 27
33 32 32 31 30 30 29 27 26 26 26 27 27 27 27 27 27 28 28 28 28 28 27 27 28 29 29 29 29 29 28 27 27 27 27 28 28 28 28 28 28 28 29 29
33 33 32 31 31 30 29 29 28 28 28 28 28 27 27 28 28 28 28 28 28 29 29 29 30 30 31 31 31 30 30 29 29 30 30 29 29 29 29 29 30 30 30 31
33 33 32 31 30 29 29 29 29 29 29 29 29 27 27 28 29 29 28 28 28 29 29 30 30 31 32 32 32 32 31 30 30 30 30 31 31 32 31 31 31 31 31 31
34 34 33 32 31 29 29 29 29 29 29 29 29 28 27 27 28 27 27 27 28 29 29 30 31 32 32 33 33 32 32 32 32 31 31 32 32 32 32 31 30 30 30 31
35 34 33 32 32 32 31 30 30 30 30 30 30 30 29 28 28 28 28 29 29 30 31 31 31 32 33 34 34 34 33 32 32 32 32 31 31 31 31 30 30 30 30 30
35 34 34 32 32 32 32 31 31 31 30 30 30 30 30 29 29 28 29 29 30 30 31 32 32 32 33 33 33 33 33 32 31 31 31 31 30 30 29 29 29 29 29 29
33 33 33 33 32 32 32 31 31 31 30 29 29 30 30 30 30 30 30 30 31 31 32 33 33 33 32 31 32 32 31 31 30 29 30 30 29 28 28 28 28 29 29 30
32 32 32 32 31 31 30 30 30 30 29 29 29 29 30 30 30 30 31 31 31 32 32 32 31 31 31 30 30 30 29 29 29 29 28 28 28 28 28 28 28 29 29 30
31 30 31 31 30 30 30 30 30 29 29 29 29 29 30 30 29 29 30 30 31 32 31 31 30 30 30 29 29 28 28 29 29 28 28 27 27 27 27 27 27 28 29 30
29 29 29 29 29 29 29 29 29 29 29 29 28 28 29 28 29 29 29 28 29 30 30 29 28 28 28 29 28 28 28 28 28 28 27 27 27 27 27 27 27 28 29 29
29 28 28 28 28 28 28 28 29 29 29 29 28 28 27 27 28 28 27 28 28 28 27 27 27 27 28 28 28 29 29 28 28 28 28 28 28 29 28 27 27 27 28 28
28 28 27 27 27 27 27 27 28 27 27 26 27 26 27 27 27 27 27 27 27 27 27 27 27 28 28 28 28 28 28 28 28 28 27 27 27 27 27 28 28 27 28 28
27 27 27 27 27 27 27 27 26 26 26 26 26 26 26 26 26 26 27 27 27 27 27 27 27 27 28 28 28 28 28 27 27 27 27 27 27 26 27 28 28 29 29 29
27 26 26 26 26 26 26 25 25 25 25 25 25 26 26 27 27 26 26 26 27 27 26 26 26 27 27 27 27 27 26 26 26 26 27 27 27 26 27 28 28 29 29 30
27 27 27 26 25 25 25 25 24 24 24 24 24 24 25 25 25 25 26 26 26 27 26 26 26 26 26 26 26 25 25 24 24 25 26 26 26 27 28 28 29 29 30 30
27 26 26 26 26 25 25 24 23 23 23 24 24 24 24 24 24 24 24 24 24 25 25 25 24 24 24 24 24 24 23 23 24 25 26 26 27 27 28 28 29 29 30 30
25 25 24 24 25 24 23 22 21 22 22 22 23 23 24 24 24 24 23 23 23 23 24 23 23 23 23 23 22 22 23 23 24 24 25 26 26 27 27 28 29 30 30 31
22 21 21 21 22 22 21 20 19 19 19 20 20 20 21 21 22 22 22 21 21 21 21 20 20 20 21 21 21 22 22 22 22 23 23 24 25 25 26 27 28 28 29 30
20 19 19 19 19 19 19 19 18 18 18 18 19 18 18 19 19 20 20 20 19 19 18 17 18 18 19 19 20 20 21 21 21 22 23 24 25 26 26 27 29 30 30 31
17 17 16 16 16 17 17 17 17 17 17 17 17 17 17 17 17 18 18 18 17 17 16 16 17 18 18 19 19 20 20 21 22 22 22 23 24 25 25 27 29 29 30 30
Wind_Direction
238 241 245 248 250 250 249 249 251 256 256 256 256 257 257 259 261 264 267 272 276 277 277 281 280 279 282 284 284 284 285 286 288 290 288 287 291 294 296 298 299 302 302 301
239 242 245 247 249 251 251 252 254 255 256 257 256 255 257 259 261 264 268 269 272 274 275 277 279 277 278 281 283 284 285 287 287 288 288 289 290 293 294 295 297 299 301 304
240 242 245 246 248 250 251 253 254 255 256 257 256 256 259 260 260 262 264 266 268 270 270 273 276 276 276 277 280 282 283 285 285 286 287 288 290 292 292 292 294 296 298 299
239 242 245 248 250 250 252 253 254 255 257 258 257 259 258 259 261 261 261 262 263 265 269 272 273 274 274 276 277 278 280 281 283 284 284 286 290 291 291 290 292 293 294 296
240 244 248 249 250 250 251 252 254 256 257 257 258 258 257 258 260 260 260 260 260 261 267 271 272 274 276 276 277 279 281 281 281 280 280 283 286 287 286 287 289 290 292 293
241 243 247 249 251 250 252 255 256 256 257 257 258 259 259 259 259 260 259 260 260 261 265 268 269 271 272 274 276 278 280 280 280 278 278 281 283 283 283 285 287 287 289 289
240 244 247 249 251 252 253 257 257 257 257 257 257 260 260 259 260 261 260 260 260 260 262 265 267 269 271 274 276 275 277 277 277 277 278 281 282 282 283 284 285 286 287 288
240 243 246 250 252 253 256 257 257 257 258 259 261 261 260 260 261 262 260 259 259 260 261 262 266 269 270 272 275 275 275 275 276 277 278 280 282 282 282 284 287 287 288 290
240 244 248 251 253 254 256 256 256 257 259 262 262 262 261 261 263 262 260 260 260 261 261 263 267 269 270 271 273 275 275 274 274 275 276 278 280 281 283 285 287 288 288 290
241 244 248 250 251 252 253 255 257 258 260 261 262 262 261 263 263 262 261 261 261 261 263 265 267 268 270 271 272 273 274 275 276 276 277 279 281 282 283 285 286 287 288 288
243 246 247 249 249 250 252 254 256 258 259 260 260 261 261 263 262 261 262 262 262 263 264 265 265 267 269 270 272 273 274 275 276 275 276 278 279 281 282 283 284 285 286 287
243 244 247 248 248 250 253 255 257 257 257 257 257 257 259 260 262 263 263 264 264 263 264 265 266 268 270 270 272 272 272 274 276 275 275 277 279 280 280 282 282 283 286 287
244 246 247 248 250 251 253 255 256 256 255 255 256 257 257 259 260 262 263 264 265 265 264 266 267 268 270 270 272 274 273 273 275 276 277 278 279 280 280 281 282 284 286 286
245 247 248 248 249 250 252 253 254 255 254 255 256 257 258 258 258 259 261 263 264 264 264 266 267 269 270 271 272 272 272 272 274 276 277 278 278 280 281 283 284 285 286 287
246 247 247 248 248 249 251 252 253 253 254 254 255 257 258 259 259 260 261 263 265 266 267 265 265 267 268 269 269 270 271 272 274 276 277 278 280 281 283 285 285 286 287 288
244 245 245 246 247 248 250 251 252 253 254 254 254 255 257 259 260 262 262 263 265 266 266 266 266 267 267 267 269 270 271 272 273 274 275 277 280 282 283 285 286 288 288 290
242 243 244 245 246 248 249 251 252 254 254 256 258 258 257 258 259 260 262 265 267 267 267 267 267 267 269 269 270 272 272 273 274 273 274 277 280 282 283 284 286 288 289 291
242 242 242 243 245 247 248 250 251 253 256 257 258 260 260 260 262 265 266 267 267 266 266 266 266 267 268 270 272 273 274 274 273 273 274 277 278 280 281 283 286 288 290 292
241 240 240 241 243 245 247 249 251 253 256 257 257 258 260 261 263 264 265 266 265 265 265 265 266 267 268 270 272 273 273 274 274 274 275 277 280 279 280 283 286 288 290 291
240 240 242 243 245 246 247 248 250 252 256 257 256 257 258 260 261 263 265 266 267 266 264 264 265 267 268 269 271 273 275 275 275 275 276 277 279 280 281 283 286 287 289 290
239 241 243 244 244 244 246 249 251 254 256 257 258 259 260 261 262 263 264 265 266 265 264 263 265 267 269 270 272 275 274 273 274 274 275 277 278 279 282 283 285 286 288 291
238 239 240 241 242 243 246 249 252 255 257 258 259 261 262 262 263 264 264 265 265 266 266 266 267 268 269 270 271 273 275 276 276 276 277 278 279 280 281 283 284 286 289 292
237 237 238 240 241 242 245 248 252 255 258 258 260 262 264 265 266 266 265 266 267 267 266 266 267 268 269 270 272 274 276 277 278 278 278 278 280 281 282 283 285 287 290 292
234 234 235 238 240 242 244 248 252 254 257 260 261 263 263 265 265 265 266 268 270 269 268 266 266 267 269 272 274 275 276 278 279 280 280 280 281 282 282 283 285 288 290 292
227 227 230 234 237 240 243 249 253 257 259 261 261 262 263 264 264 263 264 267 269 270 269 265 266 267 268 269 271 272 275 278 280 281 282 284 286 287 289 289 289 290 292 294
223 226 230 233 237 240 244 249 252 255 258 260 261 262 264 265 263 262 264 266 267 268 267 265 266 267 270 272 272 273 276 278 281 283 285 287 288 289 291 292 292 292 292 294
223 226 228 232 238 240 243 248 251 253 257 259 263 265 266 265 264 263 263 264 264 266 265 266 269 271 272 274 275 276 277 280 282 285 288 290 292 292 293 294 294 294 294 295